Port Angeles, WA

11:34 PM PDT on August 19, 2017 (GMT -0700)
Fairchild International

Weather History for KCLM - November, 2013

Change the Weather History Date:

Thursday, November 28, 2013

  Actual Average Record
Temperature  
Mean Temperature 42 °F -  
Max Temperature 52 °F 46 °F 54 °F (1959)
Min Temperature 33 °F 34 °F 13 °F (1985)
Degree Days  
Heating Degree Days 22    
Moisture  
Dew Point 39 °F    
Average Humidity 89    
Maximum Humidity 97    
Minimum Humidity 71    
Precipitation  
Precipitation 0.00 in - - ()
Sea Level Pressure  
Sea Level Pressure 30.10 in    
Wind  
Wind Speed 2 mph (SSW)    
Max Wind Speed 6 mph    
Max Gust Speed -    
Visibility 10 miles    
Events Rain    
Averages and records for this station are not official NWS values.
T = Trace of Precipitation, MM = Missing Value Source: NWS Daily Summary

Daily Weather History Graph

Daily Weather History Graph

Search for Another Location

Airport or City:

Trip Planner

Search our weather history database for the weather conditions in past years. The results will help you decide how hot, cold, wet, or windy it might be!

Date:

Astronomy

Nov. 28, 2013 Rise Set
Actual Time 7:39 AM PST 4:24 PM PST
Civil Twilight 7:04 AM PST 4:59 PM PST
Nautical Twilight 6:25 AM PST 5:38 PM PST
Astronomical Twilight 5:48 AM PST 6:15 PM PST
Moon 2:28 AM PST (11/28) 1:54 PM PST (11/28)
Length of Visible Light 9h 55m
Length of Day
8h 44m
Waning Crescent, 21% of the Moon is Illuminated
Nov 28
Waning Crescent
Dec 2
New
Dec 9
First Quarter
Dec 17
Full
Dec 25
Last Quarter

Hourly Weather History & Observations

Time (PST) Temp. Windchill Dew Point Humidity Pressure Visibility Wind Dir Wind Speed Gust Speed Precip Events Conditions
12:53 AM 35.1 °F - 33.1 °F 92% 30.04 in 10.0 mi Calm Calm - N/A   Clear
1:53 AM 33.1 °F 28.7 °F 32.0 °F 96% 30.04 in 10.0 mi SSE 4.6 mph - N/A   Clear
2:53 AM 35.1 °F - 34.0 °F 96% 30.05 in 10.0 mi Calm Calm - N/A   Clear
3:53 AM 36.0 °F - 34.0 °F 93% 30.05 in 10.0 mi Calm Calm - N/A   Clear
4:53 AM 33.1 °F - 30.9 °F 92% 30.06 in 10.0 mi Calm Calm - N/A   Clear
5:53 AM 33.1 °F - 30.9 °F 92% 30.07 in 10.0 mi Calm Calm - N/A   Clear
6:53 AM 36.0 °F 32.1 °F 34.0 °F 93% 30.08 in 10.0 mi WSW 4.6 mph - N/A   Clear
7:53 AM 34.0 °F 31.0 °F 32.0 °F 92% 30.08 in 10.0 mi WSW 3.5 mph - N/A   Clear
8:39 AM 37.0 °F 33.3 °F 36.0 °F 96% 30.09 in 10.0 mi SSW 4.6 mph - N/A   Scattered Clouds
8:53 AM 37.9 °F - 37.0 °F 97% 30.10 in 10.0 mi Calm Calm - N/A   Partly Cloudy
9:53 AM 44.1 °F 42.5 °F 41.0 °F 89% 30.09 in 10.0 mi SW 3.5 mph - N/A   Clear
10:53 AM 50.0 °F - 42.1 °F 74% 30.10 in 10.0 mi NNE 4.6 mph - N/A   Mostly Cloudy
11:53 AM 48.9 °F - 43.0 °F 80% 30.10 in 10.0 mi North 5.8 mph - N/A   Mostly Cloudy
12:53 PM 52.0 °F - 43.0 °F 71% 30.10 in 10.0 mi Calm Calm - N/A   Clear
1:53 PM 48.9 °F - 42.1 °F 77% 30.10 in 10.0 mi North 4.6 mph - N/A   Overcast
2:53 PM 50.0 °F - 43.0 °F 77% 30.10 in 10.0 mi Calm Calm - N/A   Clear
3:53 PM 46.0 °F - 43.0 °F 89% 30.11 in 10.0 mi Calm Calm - N/A   Clear
4:53 PM 42.1 °F 40.2 °F 39.9 °F 92% 30.12 in 8.0 mi SSE 3.5 mph - N/A   Clear
5:53 PM 41.0 °F - 39.9 °F 96% 30.13 in 10.0 mi Calm Calm - N/A   Mostly Cloudy
6:53 PM 44.1 °F 41.5 °F 41.0 °F 89% 30.13 in 10.0 mi SE 4.6 mph - N/A   Overcast
7:53 PM 45.0 °F - 43.0 °F 93% 30.14 in 9.0 mi Calm Calm - 0.00 in Rain Light Rain
8:53 PM 44.1 °F - 42.1 °F 93% 30.14 in 10.0 mi Calm Calm - 0.00 in   Overcast
9:53 PM 44.1 °F - 42.1 °F 93% 30.15 in 10.0 mi Calm Calm - N/A   Overcast
10:53 PM 45.0 °F - 43.0 °F 93% 30.17 in 10.0 mi Calm Calm - N/A   Overcast
11:53 PM 44.1 °F - 41.0 °F 89% 30.17 in 10.0 mi Calm Calm - N/A   Overcast